Weather History for Jacksonville, FL

Change the Weather History Date:

Wednesday, July 10, 2013

  Actual Average Record
Temperature  
Mean Temperature 80 °F 82 °F  
Max Temperature 90 °F 92 °F 102 °F (1879)
Min Temperature 70 °F 72 °F 65 °F (2000)
Degree Days  
Heating Degree Days 0 0  
Month to date heating degree days 0 0  
Since 1 June heating degree days 0 0  
Since 1 July heating degree days 0 0  
Cooling Degree Days 15 17  
Month to date cooling degree days 155 170  
Year to date cooling degree days 1064 1103  
Since 1 June cooling degree days 628 619  
Growing Degree Days 30 (Base 50)    
Moisture  
Dew Point 70 °F    
Average Humidity 74    
Maximum Humidity 100    
Minimum Humidity 47    
Precipitation  
Precipitation 0.00 in 0.21 in 1.45 in (1915)
Month to date precipitation 1.82 2.12  
Year to date precipitation 23.58 24.13  
Snow  
Snow 0.00 in 0.00 in 0.00 in (2002)
Month to date snowfall 0.0 0.0  
Since 1 June snowfall 0.0 0.0  
Since 1 July snowfall 0.0 0.0  
Snow Depth 0.00 in    
Sea Level Pressure  
Sea Level Pressure 30.06 in    
Wind  
Wind Speed 5 mph (SSE)    
Max Wind Speed 15 mph    
Max Gust Speed 21 mph    
Visibility 10 miles    
Events      
T = Trace of Precipitation, MM = Missing Value Source: NWS Daily Summary

Daily Weather History Graph

Daily Weather History Graph

Search for Another Location

Airport:

Trip Planner

Search our weather history database for the weather conditions in past years. The results will help you decide how hot, cold, wet, or windy it might be!

Date:

Astronomy

Jul. 10, 2013 Rise Set
Actual Time 6:32 AM EDT 8:31 PM EDT
Civil Twilight 6:05 AM EDT 8:59 PM EDT
Nautical Twilight 5:31 AM EDT 9:32 PM EDT
Astronomical Twilight 4:56 AM EDT 10:07 PM EDT
Moon 8:39 AM EDT (7/10) 9:55 PM EDT (7/10)
Length of Visible Light 14h 54m
Length of Day
13h 59m
Waxing Crescent, 5% of the Moon is Illuminated
Jul 10
Waxing Crescent
Jul 15
First Quarter
Jul 22
Full
Jul 29
Last Quarter
Aug 6
New

Hourly Weather History & Observations

Time (EDT) Temp. Heat Index Dew Point Humidity Pressure Visibility Wind Dir Wind Speed Gust Speed Precip Events Conditions
12:56 AM 73.0 °F - 70.0 °F 90% 30.12 in 10.0 mi Calm Calm - N/A   Partly Cloudy
1:56 AM 72.0 °F - 70.0 °F 93% 30.11 in 10.0 mi Calm Calm - N/A   Partly Cloudy
2:56 AM 71.1 °F - 69.1 °F 93% 30.10 in 10.0 mi Calm Calm - N/A   Partly Cloudy
3:56 AM 70.0 °F - 69.1 °F 97% 30.10 in 10.0 mi Calm Calm - N/A   Partly Cloudy
4:56 AM 71.1 °F - 69.1 °F 93% 30.09 in 10.0 mi Calm Calm - N/A   Partly Cloudy
5:56 AM 71.1 °F - 69.1 °F 93% 30.09 in 10.0 mi Calm Calm - N/A   Scattered Clouds
6:56 AM 71.1 °F - 69.1 °F 93% 30.09 in 10.0 mi Calm Calm - N/A   Mostly Cloudy
7:56 AM 75.9 °F - 73.9 °F 94% 30.10 in 10.0 mi Calm Calm - N/A   Mostly Cloudy
8:56 AM 81.0 °F 86.7 °F 75.0 °F 82% 30.11 in 10.0 mi South 6.9 mph - N/A   Mostly Cloudy
9:56 AM 82.9 °F 88.0 °F 72.0 °F 69% 30.11 in 10.0 mi SSE 8.1 mph - N/A   Mostly Cloudy
10:56 AM 84.0 °F 89.6 °F 72.0 °F 67% 30.11 in 10.0 mi WSW 3.5 mph - N/A   Mostly Cloudy
11:56 AM 86.0 °F 90.1 °F 69.1 °F 57% 30.10 in 10.0 mi Variable 3.5 mph - N/A   Mostly Cloudy
12:56 PM 89.1 °F 92.1 °F 66.9 °F 48% 30.09 in 10.0 mi Variable 3.5 mph - N/A   Mostly Cloudy
1:56 PM 89.1 °F 92.9 °F 68.0 °F 50% 30.06 in 10.0 mi South 6.9 mph - N/A   Mostly Cloudy
2:56 PM 89.1 °F 97.0 °F 73.0 °F 59% 30.04 in 10.0 mi ESE 8.1 mph - N/A   Mostly Cloudy
3:56 PM 89.1 °F 95.0 °F 71.1 °F 55% 30.01 in 10.0 mi SE 9.2 mph 20.7 mph N/A   Mostly Cloudy
4:56 PM 89.1 °F 93.7 °F 69.1 °F 52% 30.01 in 10.0 mi East 9.2 mph - N/A   Mostly Cloudy
5:56 PM 87.1 °F 91.3 °F 69.1 °F 55% 30.00 in 10.0 mi ESE 11.5 mph - N/A   Mostly Cloudy
6:56 PM 84.9 °F 88.8 °F 69.1 °F 59% 29.98 in 10.0 mi SSE 12.7 mph - N/A   Mostly Cloudy
7:56 PM 82.0 °F 85.9 °F 70.0 °F 67% 29.99 in 10.0 mi SE 5.8 mph - N/A   Mostly Cloudy
8:56 PM 80.1 °F 83.2 °F 70.0 °F 71% 30.00 in 10.0 mi SSE 6.9 mph - N/A   Mostly Cloudy
9:56 PM 79.0 °F - 72.0 °F 79% 30.01 in 10.0 mi SSE 9.2 mph - N/A   Mostly Cloudy
10:56 PM 79.0 °F - 72.0 °F 79% 30.04 in 10.0 mi SSE 5.8 mph - N/A   Mostly Cloudy
11:56 PM 78.1 °F - 73.0 °F 84% 30.04 in 10.0 mi SSE 6.9 mph - N/A   Mostly Cloudy